User: anonymous   Login
Location: Gleizolles
(44.4833°N, 6.7667°E)
Time: 11:32:18
(UTC+00:00)
Language:

Cosmos 1703 - Orbit

View from above orbital plane
View from above orbital plane
View from above satellite
View from above satellite

Ground track
Ground track

The orbit data is extracted from the following two-line orbital elements,

1 16262U 85108A   20190.81846515 -.00000194  00000-0 -13366-4 0  9998
2 16262  82.4769 231.3664 0012634  38.5901 321.6229 15.11300988887657
Epoch (UTC): 08 July 2020 19:38:35
Eccentricity: 0.0012634
inclination: 82.4769°
perigee height: 523 km
apogee height: 541 km
right ascension of ascending node: 231.3664°
argument of perigee: 38.5901°
revolutions per day: 15.11300988
mean anomaly at epoch: 321.6229°
orbit number at epoch: 88765

The dashed part of the orbit path shows where the satellite is in the earth's shadow,  

DLR